Weather History for San Antonio Stinson, TX

Change the Weather History Date:

Sunday, October 17, 2010

  Actual Average Record
Temperature  
Mean Temperature 70 °F -  
Max Temperature 86 °F 78 °F 93 °F (2006)
Min Temperature 57 °F 58 °F 39 °F (2001)
Cooling Degree Days 6    
Growing Degree Days 20 (Base 50)    
Moisture  
Dew Point 59 °F    
Average Humidity 67    
Maximum Humidity 90    
Minimum Humidity 37    
Precipitation  
Precipitation 0.00 in - - ()
Sea Level Pressure  
Sea Level Pressure 30.05 in    
Wind  
Wind Speed 3 mph (SSE)    
Max Wind Speed 12 mph    
Max Gust Speed 16 mph    
Visibility 10 miles    
Events      
Averages and records for this station are not official NWS values.
T = Trace of Precipitation, MM = Missing Value Source: NWS Daily Summary

Daily Weather History Graph

Daily Weather History Graph

Search for Another Location

Airport:

Trip Planner

Search our weather history database for the weather conditions in past years. The results will help you decide how hot, cold, wet, or windy it might be!

Date:

Astronomy

Oct. 17, 2010 Rise Set
Actual Time 7:36 AM CDT 7:01 PM CDT
Civil Twilight 7:12 AM CDT 7:25 PM CDT
Nautical Twilight 6:44 AM CDT 7:53 PM CDT
Astronomical Twilight 6:17 AM CDT 8:20 PM CDT
Moon 4:01 PM CDT (10/17) 2:52 AM CDT (10/17)
Length of Visible Light 12h 12m
Length of Day
11h 24m
Waxing Gibbous, 76% of the Moon is Illuminated
Oct 17
Waxing Gibbous
Oct 22
Full
Oct 30
Last Quarter
Nov 5
New
Nov 13
First Quarter

Hourly Weather History & Observations

Time (CDT) Temp. Heat Index Dew Point Humidity Pressure Visibility Wind Dir Wind Speed Gust Speed Precip Events Conditions
12:53 AM 64.0 °F - 55.9 °F 75% 30.10 in 10.0 mi Calm Calm - N/A   Clear
1:53 AM 62.1 °F - 57.0 °F 84% 30.09 in 10.0 mi Calm Calm - N/A   Clear
2:53 AM 60.1 °F - 55.9 °F 86% 30.09 in 10.0 mi Calm Calm - N/A   Clear
3:53 AM 59.0 °F - 55.9 °F 90% 30.08 in 9.0 mi Calm Calm - N/A   Clear
5:53 AM 60.1 °F - 55.9 °F 86% 30.09 in 8.0 mi North 3.5 mph - N/A   Clear
6:53 AM 59.0 °F - 55.0 °F 87% 30.11 in 9.0 mi Calm Calm - N/A   Clear
7:53 AM 57.9 °F - 55.0 °F 90% 30.12 in 6.0 mi Calm Calm - N/A   Clear
8:53 AM 64.0 °F - 59.0 °F 84% 30.13 in 7.0 mi Calm Calm - N/A   Clear
9:53 AM 71.1 °F - 62.1 °F 73% 30.14 in 10.0 mi Calm Calm - N/A   Clear
10:53 AM 77.0 °F - 64.9 °F 66% 30.13 in 10.0 mi South 6.9 mph - N/A   Clear
11:53 AM 78.1 °F - 62.1 °F 58% 30.10 in 10.0 mi South 5.8 mph - N/A   Clear
12:53 PM 81.0 °F 81.3 °F 59.0 °F 47% 30.07 in 10.0 mi SSW 4.6 mph - N/A   Clear
1:53 PM 84.0 °F 83.5 °F 57.9 °F 41% 30.03 in 10.0 mi South 8.1 mph 16.1 mph N/A   Clear
2:53 PM 84.0 °F 83.5 °F 57.9 °F 41% 30.00 in 10.0 mi SE 10.4 mph - N/A   Clear
3:53 PM 84.9 °F 83.7 °F 55.9 °F 37% 29.98 in 10.0 mi SSE 11.5 mph - N/A   Clear
4:53 PM 84.9 °F 83.9 °F 57.0 °F 38% 29.97 in 10.0 mi South 9.2 mph - N/A   Clear
5:53 PM 81.0 °F 81.3 °F 59.0 °F 47% 29.96 in 10.0 mi SE 5.8 mph - N/A   Clear
6:53 PM 79.0 °F - 59.0 °F 50% 29.96 in 10.0 mi SSE 3.5 mph - N/A   Clear
8:53 PM 71.1 °F - 61.0 °F 70% 29.99 in 10.0 mi East 3.5 mph - N/A   Clear
9:53 PM 70.0 °F - 61.0 °F 73% 29.99 in 10.0 mi SE 6.9 mph - N/A   Clear
10:53 PM 70.0 °F - 63.0 °F 78% 30.00 in 10.0 mi SE 6.9 mph - N/A   Clear
11:53 PM 69.1 °F - 63.0 °F 81% 30.00 in 10.0 mi SE 5.8 mph - N/A   Clear